W4OCD Weather Reports


time (UTC)temp
C
wind
direction
speed
KPH
gust
KPH
rain 1hr
cm
rain 24hr
cm
rain mn
cm
humidity
%
barometer
mb
20260906125649 23 155 0.0 0.0 0.00 0.03 0.03 99 1013.3
20260906125148 23 164 0.0 0.0 0.00 0.03 0.03 99 1013.3
20260906124643 23 150 0.0 0.0 0.00 0.03 0.03 99 1013.4
20260906124139 23 148 0.0 0.0 0.00 0.03 0.03 99 1013.4
20260906123637 23 129 0.0 0.0 0.00 0.03 0.03 99 1013.1
20260906123133 23 188 0.0 0.0 0.00 0.03 0.03 99 1013.1
20260906122632 23 197 0.0 0.0 0.00 0.03 0.03 99 1013.1
20260906122128 23 189 0.0 0.0 0.00 0.03 0.03 99 1013.2
20260906121624 23 188 0.0 0.0 0.00 0.03 0.03 99 1013.0
20260906121120 23 199 0.0 0.0 0.00 0.03 0.03 99 1013.0
20260906120615 23 156 0.0 0.0 0.00 0.03 0.03 99 1013.2
20260906120113 23 156 0.0 0.0 0.00 0.03 0.03 99 1012.7
20260906115613 23 197 0.0 0.0 0.00 0.03 0.03 99 1013.0
20260906115109 23 198 0.0 0.0 0.00 0.03 0.03 99 1013.0
20260906114608 23 170 0.0 0.0 0.00 0.03 0.03 99 1012.9
20260906114103 23 190 0.0 0.0 0.00 0.03 0.03 99 1013.1
20260906113603 23 205 0.0 0.0 0.00 0.03 0.03 99 1013.0
20260906113057 23 205 0.0 0.0 0.00 0.03 0.03 99 1013.0
20260906112552 23 196 0.0 0.0 0.00 0.03 0.03 99 1013.2
20260906112049 23 196 0.0 0.0 0.00 0.03 0.03 99 1013.0
20260906111548 23 174 0.0 0.0 0.00 0.03 0.03 99 1013.3
20260906111043 23 159 0.0 0.0 0.00 0.03 0.03 99 1013.2
20260906110543 23 145 0.0 0.0 0.00 0.03 0.03 99 1013.3
20260906110042 23 199 0.0 0.0 0.00 0.03 0.03 99 1013.2
20260906105537 23 155 0.0 0.0 0.00 0.03 0.03 99 1013.1
20260906105033 23 61 0.0 0.0 0.00 0.03 0.03 99 1013.2
20260906104532 23 62 0.0 0.0 0.00 0.03 0.03 99 1013.1
20260906104032 23 221 0.0 0.0 0.00 0.03 0.03 99 1012.9
20260906103530 23 203 0.0 0.0 0.00 0.03 0.03 99 1012.8
20260906103026 23 167 0.0 0.0 0.00 0.03 0.03 99 1012.7
20260906102526 23 167 0.0 0.0 0.00 0.03 0.03 99 1012.6
20260906102021 23 145 0.0 0.0 0.00 0.03 0.03 99 1012.7
20260906101515 23 66 0.0 0.0 0.00 0.03 0.03 99 1012.7
20260906101010 23 94 0.0 0.0 0.00 0.03 0.03 99 1012.6
20260906100506 23 266 0.0 0.0 0.00 0.03 0.03 99 1012.5
20260906100000 23 227 0.0 0.0 0.00 0.03 0.03 99 1012.6
20260906095455 23 216 0.0 0.0 0.00 0.03 0.03 99 1012.4
20260906094950 23 209 0.0 0.0 0.00 0.03 0.03 99 1012.5
20260906094449 23 210 0.0 0.0 0.00 0.03 0.03 99 1012.6
20260906093945 23 243 0.0 0.0 0.00 0.03 0.03 99 1012.5
20260906093441 23 252 0.0 0.0 0.00 0.03 0.03 99 1012.3
20260906092942 23 204 0.0 0.0 0.00 0.03 0.03 99 1012.5
20260906092442 23 197 0.0 0.0 0.00 0.03 0.03 99 1012.5
20260906091937 23 197 0.0 0.0 0.00 0.03 0.03 99 1012.5
20260906091433 23 189 0.0 0.0 0.00 0.03 0.03 99 1012.5
20260906090929 23 186 0.0 0.0 0.00 0.03 0.03 99 1012.4
20260906090424 23 160 0.0 0.0 0.00 0.03 0.03 99 1012.6
20260906085918 23 98 0.0 0.0 0.00 0.03 0.03 99 1012.6
20260906085412 23 138 0.0 0.0 0.00 0.03 0.03 99 1012.7
20260906084911 23 139 0.0 0.0 0.00 0.03 0.03 99 1012.4
20260906084407 23 138 0.0 0.0 0.00 0.03 0.03 99 1012.8
20260906083905 23 113 0.0 0.0 0.00 0.03 0.03 99 1012.3
20260906083401 23 60 0.0 0.0 0.00 0.03 0.03 99 1012.6
20260906082900 23 45 0.0 0.0 0.00 0.03 0.03 99 1012.4
20260906082355 23 42 0.0 0.0 0.00 0.03 0.03 99 1012.6
20260906081852 23 297 0.0 0.0 0.00 0.03 0.03 99 1012.3
20260906081347 23 189 0.0 0.0 0.00 0.03 0.03 99 1012.3
20260906080843 23 186 0.0 0.0 0.00 0.03 0.03 99 1012.5
20260906080339 23 184 0.0 0.0 0.00 0.03 0.03 99 1012.5
20260906075838 23 125 0.0 0.0 0.00 0.03 0.03 99 1012.3
20260906075333 23 125 0.0 0.0 0.00 0.03 0.03 99 1012.6
20260906074829 23 175 0.0 0.0 0.00 0.03 0.03 99 1012.8
20260906074328 23 170 0.0 0.0 0.00 0.03 0.03 99 1012.5
20260906073827 23 151 0.0 0.0 0.00 0.03 0.03 99 1012.5
20260906073322 23 65 0.0 0.0 0.00 0.03 0.03 99 1012.4
20260906072818 23 64 0.0 0.0 0.00 0.03 0.03 99 1012.5
20260906072314 23 61 0.0 0.0 0.00 0.03 0.03 99 1012.3
20260906071810 23 98 0.0 0.0 0.00 0.03 0.03 99 1012.3
20260906071310 23 69 0.0 0.0 0.00 0.03 0.03 99 1012.3
20260906070807 23 128 0.0 0.0 0.00 0.03 0.03 99 1012.2
20260906070302 23 173 0.0 0.0 0.00 0.03 0.03 99 1011.8
20260906065802 23 145 0.0 0.0 0.00 0.03 0.03 99 1011.8
20260906065257 23 162 0.0 0.0 0.00 0.03 0.03 99 1011.8
20260906064753 23 165 0.0 0.0 0.00 0.03 0.03 99 1012.0
20260906064249 23 120 0.0 0.0 0.00 0.03 0.03 99 1012.1
20260906063743 24 63 1.6 1.6 0.00 0.03 0.03 99 1012.2
20260906063239 24 80 4.8 4.8 0.00 0.03 0.03 98 1012.2
20260906062733 24 201 0.0 0.0 0.13 0.03 0.03 98 1012.1
20260906062227 24 267 4.8 8.0 0.13 0.03 0.03 98 1011.9
20260906061723 23 245 9.7 11.3 0.00 0.00 0.00 98 1012.3
20260906061220 23 229 1.6 3.2 0.00 0.00 0.00 98 1012.6
20260906060714 23 183 0.0 0.0 0.00 0.00 0.00 98 1012.8
20260906060212 24 166 0.0 0.0 0.00 0.00 0.00 98 1012.8
20260906055707 24 88 1.6 1.6 0.00 0.00 0.00 98 1012.9
20260906055203 24 52 4.8 4.8 0.00 0.00 0.00 98 1013.2
20260906054657 24 60 3.2 3.2 0.00 0.00 0.00 98 1013.1
20260906054152 24 66 0.0 0.0 0.00 0.00 0.00 98 1013.1
20260906053649 24 131 0.0 0.0 0.00 0.00 0.00 98 1012.7
20260906053143 24 138 0.0 0.0 0.00 0.00 0.00 98 1013.0
20260906052639 24 110 0.0 0.0 0.00 0.00 0.00 98 1013.0
20260906052136 24 195 0.0 0.0 0.00 0.00 0.00 98 1013.0
20260906051632 24 195 0.0 0.0 0.00 0.00 0.00 98 1012.9
20260906051131 23 170 0.0 0.0 0.00 0.00 0.00 98 1012.9
20260906050627 23 169 0.0 0.0 0.00 0.00 0.00 97 1012.9
20260906050122 24 170 0.0 0.0 0.00 0.00 0.00 97 1012.9
20260906045620 24 170 0.0 0.0 0.00 0.00 0.00 97 1012.9
20260906045116 24 107 0.0 0.0 0.00 0.00 0.00 97 1012.8
20260906044612 24 141 0.0 0.0 0.00 0.00 0.00 97 1012.9
20260906044107 24 141 0.0 0.0 0.00 0.00 0.00 97 1013.0
20260906043603 24 107 0.0 0.0 0.00 0.00 0.00 96 1012.9
20260906043058 25 108 0.0 0.0 0.00 0.00 0.00 96 1013.1
20260906042557 25 106 0.0 0.0 0.00 0.00 0.00 96 1013.1
20260906042052 25 131 0.0 0.0 0.00 0.00 0.00 96 1013.0
20260906041549 25 137 0.0 0.0 0.00 0.00 0.00 96 1013.2
20260906041043 25 142 0.0 0.0 0.00 0.00 0.00 96 1013.3
20260906040538 25 151 0.0 0.0 0.00 0.00 0.00 96 1013.1
20260906040033 25 154 0.0 0.0 0.00 0.00 0.00 96 1013.0
20260906035523 25 130 0.0 0.0 0.00 0.00 0.00 96 1013.1
20260906035019 25 131 0.0 0.0 0.00 0.00 0.00 96 1013.1
20260906034518 25 186 0.0 0.0 0.00 0.00 0.00 96 1013.0
20260906034014 25 186 0.0 0.0 0.00 0.00 0.00 96 1013.0
20260906033508 25 186 0.0 0.0 0.00 0.00 0.00 96 1012.9
20260906033004 25 186 0.0 0.0 0.00 0.00 0.00 96 1013.0
20260906032455 25 186 0.0 0.0 0.00 0.00 0.00 96 1013.1
20260906031954 25 186 0.0 0.0 0.00 0.00 0.00 96 1013.1
20260906031450 25 178 0.0 0.0 0.00 0.00 0.00 96 1013.3
20260906030945 25 196 0.0 0.0 0.00 0.00 0.00 96 1013.3
20260906030440 25 200 0.0 0.0 0.00 0.00 0.00 95 1013.1
20260906025934 25 228 0.0 0.0 0.00 0.00 0.00 95 1013.1
20260906025428 25 270 0.0 0.0 0.00 0.00 0.00 95 1013.1
20260906024927 25 169 0.0 0.0 0.00 0.00 0.00 94 1013.4
20260906024426 25 169 0.0 0.0 0.00 0.00 0.00 94 1013.3
20260906023922 25 153 0.0 0.0 0.00 0.00 0.00 94 1013.3
20260906023418 25 122 0.0 0.0 0.00 0.00 0.00 93 1013.1
20260906022918 25 156 0.0 0.0 0.00 0.00 0.00 93 1012.9
20260906022413 25 156 0.0 0.0 0.00 0.00 0.00 93 1012.8
20260906021909 25 156 0.0 0.0 0.00 0.00 0.00 93 1012.7
20260906021408 25 156 0.0 0.0 0.00 0.00 0.00 93 1012.6
20260906020903 25 156 0.0 0.0 0.00 0.00 0.00 93 1012.6
20260906020357 26 157 0.0 0.0 0.00 0.00 0.00 92 1012.4
20260906015852 26 158 0.0 0.0 0.00 0.00 0.00 92 1012.4
20260906015351 26 152 0.0 0.0 0.00 0.00 0.00 92 1012.5
20260906014850 26 153 0.0 0.0 0.00 0.00 0.00 91 1012.3
20260906014345 26 126 0.0 0.0 0.00 0.00 0.00 91 1012.3
20260906013841 26 170 0.0 0.0 0.00 0.00 0.00 90 1012.4
20260906013336 26 170 0.0 0.0 0.00 0.00 0.00 91 1012.1
20260906012832 26 169 0.0 0.0 0.00 0.00 0.00 91 1012.3
20260906012327 26 182 0.0 0.0 0.00 0.00 0.00 90 1012.1
20260906011827 26 228 0.0 0.0 0.00 0.00 0.00 89 1012.0
20260906011322 26 228 0.0 0.0 0.00 0.00 0.00 89 1012.1
20260906010818 26 225 0.0 0.0 0.00 0.00 0.00 89 1011.8
20260906010314 26 228 0.0 0.0 0.00 0.00 0.00 89 1011.8
20260906005809 26 228 0.0 0.0 0.00 0.00 0.00 89 1011.7
20260906005307 26 224 0.0 0.0 0.00 0.00 0.00 89 1011.8
20260906004806 27 239 0.0 1.6 0.00 0.00 0.00 87 1011.7
20260906004301 27 247 0.0 0.0 0.00 0.00 0.00 87 1011.7
20260906003756 27 316 1.6 3.2 0.00 0.00 0.00 87 1011.7
20260906003252 27 234 3.2 3.2 0.00 0.00 0.00 87 1011.6
20260906002747 27 297 3.2 3.2 0.00 0.00 0.00 87 1011.7
20260906002247 27 256 3.2 3.2 0.00 0.00 0.00 87 1011.6
20260906001742 27 235 1.6 1.6 0.00 0.00 0.00 87 1011.6
20260906001237 27 278 3.2 3.2 0.00 0.00 0.00 87 1011.7
20260906000733 27 234 6.4 8.0 0.00 0.00 0.00 86 1011.8
20260906000234 27 222 4.8 4.8 0.00 0.00 0.00 86 1011.7
20260905235733 27 229 4.8 8.0 0.00 0.00 0.00 85 1011.7
20260905235227 27 243 4.8 4.8 0.00 0.00 0.00 85 1011.9
20260905234723 28 227 1.6 1.6 0.00 0.00 0.00 85 1011.8
20260905234218 28 226 8.0 9.7 0.00 0.00 0.00 84 1011.8
20260905233713 28 228 4.8 4.8 0.00 0.00 0.00 83 1011.7
20260905233212 28 229 8.0 9.7 0.00 0.00 0.00 83 1011.9
20260905232707 28 234 9.7 11.3 0.00 0.00 0.00 82 1012.0
20260905232203 28 270 9.7 11.3 0.00 0.00 0.00 82 1011.9
20260905231659 28 237 6.4 8.0 0.00 0.00 0.00 82 1012.0
20260905231154 28 256 6.4 8.0 0.00 0.00 0.00 83 1011.9
20260905230650 28 246 6.4 9.7 0.00 0.00 0.00 83 1011.7
20260905230148 28 260 11.3 12.9 0.00 0.00 0.00 82 1011.7
20260905225647 29 245 8.0 9.7 0.00 0.00 0.00 81 1012.0
20260905225142 30 240 9.7 11.3 0.00 0.00 0.00 80 1011.9
20260905224641 30 261 8.0 8.0 0.00 0.00 0.00 79 1011.9
20260905224136 30 292 12.9 14.5 0.00 0.00 0.00 78 1011.9
20260905223633 30 260 14.5 14.5 0.00 0.00 0.00 79 1011.8
20260905223130 31 225 9.7 11.3 0.00 0.00 0.00 76 1011.7
20260905222625 31 208 8.0 9.7 0.00 0.00 0.00 76 1011.9
20260905222120 31 198 6.4 8.0 0.00 0.00 0.00 74 1011.9
20260905221615 31 234 9.7 11.3 0.00 0.00 0.00 75 1011.9
20260905221112 32 245 4.8 4.8 0.00 0.00 0.00 72 1012.0
20260905220607 31 284 11.3 12.9 0.00 0.00 0.00 73 1011.9
20260905215602 31 228 8.0 9.7 0.00 0.00 0.00 76 1011.8
20260905215058 31 244 4.8 4.8 0.00 0.00 0.00 74 1011.8
20260905214554 31 213 4.8 4.8 0.00 0.00 0.00 75 1011.8
20260905214049 31 248 9.7 14.5 0.00 0.00 0.00 74 1011.8
20260905213544 31 243 6.4 8.0 0.00 0.00 0.00 75 1012.0
20260905213039 31 231 4.8 8.0 0.00 0.00 0.00 73 1011.9
20260905212534 31 269 11.3 12.9 0.00 0.00 0.00 74 1011.9
20260905212034 32 181 4.8 8.0 0.00 0.00 0.00 69 1011.9
20260905211529 32 198 4.8 8.0 0.00 0.00 0.00 69 1012.0
20260905211025 32 188 4.8 4.8 0.00 0.00 0.00 71 1012.3
20260905210521 31 218 3.2 4.8 0.00 0.00 0.00 71 1012.2
20260905210020 31 236 11.3 14.5 0.00 0.00 0.00 75 1012.3
20260905205514 31 205 6.4 9.7 0.00 0.00 0.00 73 1012.1
20260905205013 31 272 8.0 11.3 0.00 0.00 0.00 70 1012.1
20260905204509 31 349 1.6 3.2 0.00 0.00 0.00 71 1012.1
20260905204009 32 202 8.0 11.3 0.00 0.00 0.00 72 1012.4
20260905203504 32 266 11.3 11.3 0.00 0.00 0.00 70 1012.6
20260905202959 32 229 4.8 4.8 0.00 0.00 0.00 69 1012.2
20260905202454 31 250 9.7 12.9 0.00 0.00 0.00 71 1012.5
20260905201949 31 255 11.3 12.9 0.00 0.00 0.00 70 1012.8
20260905201445 31 232 4.8 8.0 0.00 0.00 0.00 73 1012.7
20260905200944 31 234 4.8 4.8 0.00 0.00 0.00 72 1012.9
20260905200440 31 229 8.0 9.7 0.00 0.00 0.00 71 1012.8
20260905195939 31 239 8.0 11.3 0.00 0.00 0.00 72 1012.9
20260905195434 32 216 8.0 12.9 0.00 0.00 0.00 71 1012.9
20260905194930 31 247 8.0 9.7 0.00 0.00 0.00 69 1012.9
20260905194428 32 177 9.7 11.3 0.00 0.00 0.00 71 1012.9
20260905193923 31 194 4.8 4.8 0.00 0.00 0.00 72 1012.8
20260905193418 31 172 4.8 4.8 0.00 0.00 0.00 72 1012.8
20260905192913 31 281 4.8 8.0 0.00 0.00 0.00 72 1012.8
20260905192409 31 210 4.8 4.8 0.00 0.00 0.00 71 1013.2
20260905191909 32 218 4.8 4.8 0.00 0.00 0.00 71 1012.9
20260905191408 31 246 9.7 12.9 0.00 0.00 0.00 72 1012.9
20260905190902 31 174 4.8 8.0 0.00 0.00 0.00 74 1013.1
20260905190354 31 219 11.3 12.9 0.00 0.00 0.00 74 1013.0
20260905185853 30 178 6.4 8.0 0.00 0.00 0.00 76 1013.4
20260905185349 31 219 4.8 4.8 0.00 0.00 0.00 72 1013.3
20260905184848 31 215 4.8 4.8 0.00 0.00 0.00 72 1013.3
20260905184348 31 178 6.4 8.0 0.00 0.00 0.00 72 1013.4
20260905183846 30 189 6.4 8.0 0.00 0.00 0.00 74 1013.4
20260905183341 30 208 6.4 9.7 0.00 0.00 0.00 74 1013.7
20260905182836 30 191 8.0 9.7 0.00 0.00 0.00 76 1013.7
20260905182335 30 207 4.8 8.0 0.00 0.00 0.00 76 1014.0
20260905181831 30 228 9.7 12.9 0.00 0.00 0.00 75 1014.1
20260905181331 30 235 9.7 11.3 0.00 0.00 0.00 77 1014.3
20260905180830 30 218 11.3 12.9 0.00 0.00 0.00 71 1014.2
20260905180325 31 194 8.0 9.7 0.00 0.00 0.00 74 1014.4
20260905175820 31 209 4.8 4.8 0.00 0.00 0.00 74 1014.5
20260905175314 31 247 17.7 17.7 0.00 0.00 0.00 76 1014.3
20260905174810 30 230 8.0 9.7 0.00 0.00 0.00 77 1014.5
20260905174306 30 219 8.0 11.3 0.00 0.00 0.00 75 1014.5
20260905173801 30 232 14.5 16.1 0.00 0.00 0.00 77 1014.8
20260905173257 30 215 11.3 12.9 0.00 0.00 0.00 77 1014.8
20260905172756 28 239 12.9 14.5 0.00 0.00 0.00 80 1014.8
20260905172255 29 222 11.3 14.5 0.00 0.00 0.00 78 1015.0
20260905171751 29 203 9.7 12.9 0.00 0.00 0.00 79 1015.0
20260905171248 28 225 11.3 12.9 0.00 0.00 0.00 82 1015.1
20260905170744 28 186 8.0 11.3 0.00 0.00 0.00 82 1015.0
20260905170239 27 202 3.2 4.8 0.00 0.00 0.00 83 1015.1
20260905165738 27 226 12.9 12.9 0.00 0.00 0.00 84 1015.2
20260905165234 28 220 8.0 9.7 0.00 0.00 0.00 83 1015.0
20260905164734 30 222 14.5 17.7 0.00 0.00 0.00 81 1014.9
20260905164228 29 188 11.3 12.9 0.00 0.00 0.00 81 1015.1
20260905163725 30 185 12.9 20.9 0.00 0.00 0.00 76 1015.1
20260905163221 29 224 11.3 12.9 0.00 0.00 0.00 80 1015.1
20260905162716 28 221 11.3 12.9 0.00 0.00 0.00 80 1015.2
20260905162210 28 233 11.3 17.7 0.00 0.00 0.00 82 1015.5
20260905161705 30 210 9.7 14.5 0.00 0.00 0.00 79 1015.4
20260905161204 30 249 19.3 22.5 0.00 0.00 0.00 78 1015.5
20260905160702 30 233 11.3 12.9 0.00 0.00 0.00 76 1015.4
20260905160201 30 246 8.0 11.3 0.00 0.00 0.00 79 1015.4
20260905155656 30 220 4.8 4.8 0.00 0.00 0.00 77 1015.3
20260905155155 30 235 8.0 9.7 0.00 0.00 0.00 78 1015.1
20260905154650 30 183 8.0 9.7 0.00 0.00 0.00 78 1015.0
20260905154145 30 215 8.0 9.7 0.00 0.00 0.00 78 1014.9
20260905153641 30 186 6.4 8.0 0.00 0.00 0.00 76 1015.1
20260905153137 30 216 11.3 16.1 0.00 0.00 0.00 74 1014.8
20260905152631 30 182 1.6 1.6 0.00 0.00 0.00 74 1014.9
20260905152126 30 158 3.2 3.2 0.00 0.00 0.00 75 1014.9
20260905151621 30 212 4.8 4.8 0.00 0.00 0.00 75 1014.8
20260905151117 30 181 0.0 1.6 0.00 0.00 0.00 74 1014.9
20260905150612 30 308 3.2 3.2 0.00 0.00 0.00 76 1015.0
20260905150110 30 330 4.8 8.0 0.00 0.00 0.00 76 1014.8
20260905145609 30 252 6.4 8.0 0.00 0.00 0.00 76 1014.8
20260905145108 29 211 1.6 1.6 0.00 0.00 0.00 78 1014.9
20260905144603 28 211 3.2 3.2 0.00 0.00 0.00 79 1014.5
20260905144102 29 193 1.6 1.6 0.00 0.00 0.00 78 1014.8
20260905143602 28 203 3.2 3.2 0.00 0.00 0.00 79 1014.7
20260905143057 28 192 1.6 3.2 0.00 0.00 0.00 80 1014.8
20260905142556 28 122 0.0 0.0 0.00 0.00 0.00 81 1014.8
20260905142056 28 45 3.2 3.2 0.00 0.00 0.00 81 1014.8
20260905141550 28 111 0.0 0.0 0.00 0.00 0.00 82 1014.8
20260905141047 28 101 0.0 0.0 0.00 0.00 0.00 81 1014.8
20260905140542 28 129 0.0 0.0 0.00 0.00 0.00 81 1014.8
20260905140041 28 139 0.0 0.0 0.00 0.00 0.00 82 1014.9
20260905135537 28 205 0.0 0.0 0.00 0.00 0.00 83 1014.7
20260905135036 28 279 1.6 1.6 0.00 0.00 0.00 81 1014.8
20260905134531 27 133 0.0 0.0 0.00 0.00 0.00 83 1014.8
20260905134030 27 101 1.6 3.2 0.00 0.00 0.00 84 1014.5
20260905133526 27 82 3.2 4.8 0.00 0.00 0.00 84 1014.7
20260905133025 27 146 0.0 0.0 0.00 0.00 0.00 84 1014.7
20260905132525 26 52 1.6 1.6 0.00 0.00 0.00 88 1014.6
20260905132020 26 96 0.0 0.0 0.00 0.00 0.00 89 1014.7
20260905131515 26 98 0.0 0.0 0.00 0.00 0.00 90 1014.8
20260905131010 25 107 0.0 0.0 0.00 0.00 0.00 91 1014.9
20260905130509 25 110 0.0 0.0 0.00 0.00 0.00 91 1014.8
20260905130005 25 84 0.0 0.0 0.00 0.00 0.00 91 1015.0